Weather History for 94368 - April, 2013

Change the Weather History Date:

Sunday, April 28, 2013

  Actual Average Record
Temperature  
Mean Temperature 74 °F -  
Max Temperature 77 °F - - ()
Min Temperature 70 °F - - ()
Cooling Degree Days 8    
Growing Degree Days 24 (Base 50)    
Moisture  
Dew Point 71 °F    
Average Humidity 88    
Maximum Humidity 100    
Minimum Humidity 78    
Precipitation  
Precipitation 0.35 in - - ()
Sea Level Pressure  
Sea Level Pressure 30.01 in    
Wind  
Wind Speed 24 mph ()    
Max Wind Speed 32 mph    
Max Gust Speed -    
T = Trace of Precipitation, MM = Missing Value Source: Averaged Metar Reports

Daily Weather History Graph

Daily Weather History Graph

Search for Another Location

Airport or City:

Trip Planner

Search our weather history database for the weather conditions in past years. The results will help you decide how hot, cold, wet, or windy it might be!

Date:

Astronomy

Apr. 28, 2013 Rise Set
Actual Time 6:19 AM AEST 5:43 PM AEST
Civil Twilight 5:56 AM AEST 6:06 PM AEST
Nautical Twilight 5:30 AM AEST 6:32 PM AEST
Astronomical Twilight 5:04 AM AEST 6:58 PM AEST
Moon 7:58 PM AEST (4/28) 8:30 AM AEST (4/28)
Length of Visible Light 12h 09m
Length of Day
11h 24m
Waning Gibbous, 93% of the Moon is Illuminated
Apr 28
Waning Gibbous
May 2
Last Quarter
May 10
New
May 18
First Quarter
May 25
Full

Hourly Weather History & Observations

Time (AEST) Temp. Dew Point Humidity Pressure Visibility Wind Dir Wind Speed Gust Speed Precip Events Conditions
12:00 AM 75 °F 70 °F 79% 30.03 in - SE 26.5 mph - -  
12:00 AM 75.2 °F 69.8 °F 83% 30.04 in - SE 26.5 mph - N/A   Unknown
12:30 AM 75.2 °F 69.8 °F 83% 30.01 in - SE 26.5 mph - N/A   Unknown
1:00 AM 75.2 °F 68.0 °F 78% 30.01 in - SE 25.3 mph - N/A   Unknown
1:30 AM 75.2 °F 68.0 °F 78% 30.01 in - SE 27.6 mph - N/A   Unknown
2:00 AM 75.2 °F 69.8 °F 83% 30.01 in - SE 27.6 mph - N/A   Unknown
2:30 AM 75.2 °F 69.8 °F 83% 29.98 in - SE 26.5 mph - N/A   Unknown
3:00 AM 74 °F 70 °F 83% 29.99 in - SSE 24.2 mph - -  
3:00 AM 73.4 °F 69.8 °F 88% 29.98 in - SSE 24.2 mph - N/A   Unknown
3:30 AM 73.4 °F 69.8 °F 88% 29.98 in - SSE 23.0 mph - N/A   Unknown
4:00 AM 73.4 °F 69.8 °F 88% 29.98 in - SSE 26.5 mph - N/A   Unknown
4:30 AM 73.4 °F 69.8 °F 88% 29.98 in - SSE 26.5 mph - N/A   Unknown
5:00 AM 73.4 °F 69.8 °F 88% 29.98 in - SSE 25.3 mph - N/A   Unknown
5:30 AM 73.4 °F 69.8 °F 88% 30.01 in - SSE 24.2 mph - N/A   Unknown
6:00 AM 73 °F 70 °F 86% 30.01 in - SSE 25.3 mph - -  
6:00 AM 73.4 °F 69.8 °F 88% 30.01 in - SSE 25.3 mph - N/A   Unknown
6:30 AM 73.4 °F 69.8 °F 88% 30.01 in - SSE 26.5 mph - N/A   Unknown
7:00 AM 73.4 °F 69.8 °F 88% 30.01 in - SSE 25.3 mph - N/A   Unknown
7:30 AM 73.4 °F 69.8 °F 88% 30.04 in - SSE 26.5 mph - N/A   Unknown
8:00 AM 73.4 °F 69.8 °F 88% 30.04 in - SSE 24.2 mph - N/A   Unknown
8:30 AM 73.4 °F 69.8 °F 88% 30.04 in - SSE 25.3 mph - N/A   Unknown
9:00 AM 73 °F 70 °F 87% 30.06 in - SSE 23.0 mph - -  
9:00 AM 73.4 °F 69.8 °F 88% 30.04 in - SSE 23.0 mph - N/A   Unknown
9:30 AM 71.6 °F 71.6 °F 100% 30.06 in - SSE 23.0 mph - N/A   Unknown
10:00 AM 71.6 °F 71.6 °F 100% 30.06 in - SSE 23.0 mph - N/A   Unknown
10:30 AM 71.6 °F 71.6 °F 100% 30.04 in - SSE 26.5 mph - N/A   Unknown
11:00 AM 71.6 °F 71.6 °F 100% 30.04 in - SE 18.4 mph - N/A   Unknown
11:30 AM - - N/A% 30.04 in - SSE 20.7 mph - N/A   Unknown
12:00 PM 72 °F - % 30.03 in - SSE 19.6 mph - -  
12:00 PM 71.6 °F 71.6 °F 100% 30.01 in - SSE 19.6 mph - N/A   Unknown
12:30 PM 73.4 °F 71.6 °F 94% 30.01 in - SSE 28.8 mph - N/A   Unknown
1:00 PM 73.4 °F 71.6 °F 94% 30.01 in - SSE 29.9 mph - N/A   Unknown
1:30 PM 75.2 °F 73.4 °F 94% 29.98 in - SE 32.2 mph - N/A   Unknown
2:00 PM 75.2 °F 71.6 °F 89% 29.98 in - SE 31.1 mph - N/A   Unknown
2:30 PM 75.2 °F 71.6 °F 89% 29.98 in - SE 27.6 mph - N/A   Unknown
3:00 PM 76 °F 73 °F 88% 29.98 in - SE 29.9 mph - -  
3:00 PM 77.0 °F 73.4 °F 89% 29.98 in - SE 29.9 mph - N/A   Unknown
3:30 PM 75.2 °F 71.6 °F 89% 29.98 in - SE 25.3 mph - N/A   Unknown
4:00 PM 75.2 °F 73.4 °F 94% 29.98 in - SE 26.5 mph - N/A   Unknown
4:30 PM 75.2 °F 73.4 °F 94% 29.98 in - SE 24.2 mph - N/A   Unknown
5:00 PM 75.2 °F 71.6 °F 89% 29.98 in - SE 26.5 mph - N/A   Unknown
5:30 PM 75.2 °F 69.8 °F 83% 29.98 in - SE 28.8 mph - N/A   Unknown
6:00 PM 75 °F 72 °F 87% 30.00 in - SE 26.5 mph - -  
6:00 PM 75.2 °F 71.6 °F 89% 30.01 in - SE 26.5 mph - N/A   Unknown
6:30 PM 75.2 °F 73.4 °F 94% 30.01 in - SE 29.9 mph - N/A   Unknown
7:00 PM 75.2 °F 69.8 °F 83% 30.01 in - SE 27.6 mph - N/A   Unknown
7:30 PM 75.2 °F 71.6 °F 89% 30.01 in - SE 27.6 mph - N/A   Unknown
8:00 PM 75.2 °F 71.6 °F 89% 30.04 in - SE 28.8 mph - N/A   Unknown
8:30 PM 75.2 °F 69.8 °F 83% 30.04 in - SE 28.8 mph - N/A   Unknown
9:00 PM 76 °F 71 °F 79% 30.06 in - SE 27.6 mph - -  
9:00 PM 75.2 °F 71.6 °F 89% 30.06 in - SE 27.6 mph - N/A   Unknown
9:30 PM 75.2 °F 69.8 °F 83% 30.04 in - SE 25.3 mph - N/A   Unknown
10:00 PM 75.2 °F 71.6 °F 89% 30.04 in - SE 27.6 mph - N/A   Unknown
10:30 PM 75.2 °F 71.6 °F 89% 30.04 in - SE 26.5 mph - N/A   Unknown
11:00 PM 75.2 °F 68.0 °F 78% 30.04 in - SE 26.5 mph - N/A   Unknown
11:30 PM 75.2 °F 69.8 °F 83% 30.04 in - SE 25.3 mph - N/A   Unknown